TimeEST,TemperatureF,Dew PointF,Humidity,Sea Level PressureIn,VisibilityMPH,Wind Direction,Wind SpeedMPH,Gust SpeedMPH,PrecipitationIn,Events,Conditions,WindDirDegrees,DateUTC
12:51 AM,37.0,16.0,42,30.24,10.0,SE,3.5,-,N/A,,Mostly Cloudy,140,2011-11-19 05:51:00
1:51 AM,35.1,17.1,48,30.23,10.0,SE,3.5,-,N/A,,Mostly Cloudy,140,2011-11-19 06:51:00
2:51 AM,34.0,18.0,52,30.24,10.0,Calm,Calm,-,N/A,,Mostly Cloudy,0,2011-11-19 07:51:00
3:51 AM,35.1,16.0,46,30.24,10.0,East,3.5,-,N/A,,Overcast,100,2011-11-19 08:51:00
4:51 AM,34.0,16.0,48,30.26,10.0,Calm,Calm,-,N/A,,Mostly Cloudy,0,2011-11-19 09:51:00
5:51 AM,30.9,18.0,59,30.28,10.0,Calm,Calm,-,N/A,,Mostly Cloudy,0,2011-11-19 10:51:00
6:51 AM,30.9,19.0,61,30.28,10.0,Calm,Calm,-,N/A,,Mostly Cloudy,0,2011-11-19 11:51:00
7:51 AM,33.1,19.0,56,30.30,10.0,South,4.6,-,N/A,,Mostly Cloudy,180,2011-11-19 12:51:00
8:51 AM,41.0,21.2,45,30.25,10.0,SSE,4.6,-,N/A,,Mostly Cloudy,160,2011-11-19 13:51:00
9:51 AM,48.0,21.9,36,30.30,10.0,SSW,6.9,-,N/A,,Mostly Cloudy,210,2011-11-19 14:51:00
10:51 AM,51.1,26.1,38,30.29,10.0,SSW,11.5,23.0,N/A,,Mostly Cloudy,210,2011-11-19 15:51:00
11:51 AM,53.1,28.0,38,30.26,10.0,SW,15.0,23.0,N/A,,Mostly Cloudy,220,2011-11-19 16:51:00
12:51 PM,55.0,32.0,42,30.22,10.0,SW,16.1,25.3,N/A,,Mostly Cloudy,220,2011-11-19 17:51:00
1:51 PM,55.0,33.1,43,30.19,10.0,SSW,17.3,27.6,N/A,,Mostly Cloudy,210,2011-11-19 18:51:00
2:51 PM,55.0,33.1,43,30.16,10.0,South,12.7,-,N/A,,Overcast,180,2011-11-19 19:51:00
3:51 PM,55.0,34.0,45,30.16,10.0,South,11.5,17.3,N/A,,Overcast,190,2011-11-19 20:51:00
4:51 PM,55.0,33.1,43,30.15,10.0,South,9.2,-,N/A,,Overcast,180,2011-11-19 21:51:00
5:51 PM,52.0,33.1,49,30.16,10.0,South,4.6,-,N/A,,Mostly Cloudy,180,2011-11-19 22:51:00
6:51 PM,50.0,33.1,52,30.15,10.0,SE,3.5,-,N/A,,Mostly Cloudy,140,2011-11-19 23:51:00
7:51 PM,48.0,32.0,54,30.14,10.0,SSE,4.6,-,N/A,,Mostly Cloudy,150,2011-11-20 00:51:00
8:51 PM,46.9,32.0,56,30.13,10.0,South,5.8,-,N/A,,Mostly Cloudy,170,2011-11-20 01:51:00
9:51 PM,50.0,30.9,48,30.11,10.0,South,5.8,-,N/A,,Mostly Cloudy,170,2011-11-20 02:51:00
10:51 PM,52.0,32.0,47,30.09,10.0,South,9.2,-,N/A,,Mostly Cloudy,190,2011-11-20 03:51:00
11:51 PM,52.0,34.0,50,30.08,10.0,South,6.9,-,N/A,,Overcast,180,2011-11-20 04:51:00